| time (UTC) | temp F | wind direction | speed knots | gust knots | rain 1hr in | rain 24hr in | rain mn in | humidity % | barometer mb |
| 20260504004736 | 52 | 208 | 0.0 | 0.0 | 0.00 | 0.00 | 0.00 | 45 | 1012.0 |
| 20260504004233 | 53 | 208 | 0.0 | 0.0 | 0.00 | 0.00 | 0.00 | 46 | 1011.7 |
| 20260504003729 | 53 | 208 | 0.0 | 0.0 | 0.00 | 0.00 | 0.00 | 43 | 1011.9 |
| 20260504003227 | 54 | 208 | 0.0 | 0.0 | 0.00 | 0.00 | 0.00 | 41 | 1011.7 |
| 20260504002723 | 55 | 208 | 0.0 | 0.0 | 0.00 | 0.00 | 0.00 | 40 | 1011.7 |
| 20260504002220 | 55 | 208 | 0.0 | 0.0 | 0.00 | 0.00 | 0.00 | 39 | 1011.7 |
| 20260504001718 | 56 | 225 | 0.0 | 0.0 | 0.00 | 0.00 | 0.00 | 37 | 1011.5 |
| 20260504001215 | 56 | 191 | 0.0 | 0.9 | 0.00 | 0.00 | 0.00 | 36 | 1011.2 |
| 20260504000711 | 56 | 215 | 0.0 | 0.0 | 0.00 | 0.00 | 0.00 | 36 | 1011.3 |
| 20260504000208 | 57 | 199 | 0.0 | 0.0 | 0.00 | 0.00 | 0.00 | 36 | 1011.2 |
| 20260503235707 | 57 | 272 | 2.6 | 4.3 | 0.00 | 0.00 | 0.00 | 34 | 1011.2 |
| 20260503235203 | 57 | 197 | 0.9 | 0.9 | 0.00 | 0.00 | 0.00 | 35 | 1011.1 |
| 20260503234701 | 57 | 249 | 1.7 | 1.7 | 0.00 | 0.00 | 0.00 | 35 | 1011.1 |
| 20260503234159 | 58 | 164 | 0.0 | 0.0 | 0.00 | 0.00 | 0.00 | 34 | 1011.2 |
| 20260503233655 | 58 | 79 | 0.9 | 1.7 | 0.00 | 0.00 | 0.00 | 34 | 1011.1 |
| 20260503233151 | 59 | 286 | 3.5 | 4.3 | 0.00 | 0.00 | 0.00 | 32 | 1011.2 |
| 20260503232643 | 59 | 212 | 1.7 | 1.7 | 0.00 | 0.00 | 0.00 | 32 | 1011.0 |
| 20260503232140 | 59 | 205 | 0.9 | 1.7 | 0.00 | 0.00 | 0.00 | 32 | 1010.9 |
| 20260503231638 | 59 | 186 | 0.0 | 0.9 | 0.00 | 0.00 | 0.00 | 32 | 1010.6 |
| 20260503231134 | 59 | 224 | 1.7 | 2.6 | 0.00 | 0.00 | 0.00 | 31 | 1010.9 |
| 20260503230631 | 59 | 232 | 2.6 | 5.2 | 0.00 | 0.00 | 0.00 | 31 | 1011.0 |
| 20260503230128 | 59 | 216 | 0.9 | 0.9 | 0.00 | 0.00 | 0.00 | 33 | 1011.0 |
| 20260503225626 | 59 | 250 | 1.7 | 2.6 | 0.00 | 0.00 | 0.00 | 32 | 1010.9 |
| 20260503225125 | 59 | 248 | 0.9 | 0.9 | 0.00 | 0.00 | 0.00 | 31 | 1010.7 |
| 20260503224623 | 59 | 235 | 1.7 | 1.7 | 0.00 | 0.00 | 0.00 | 32 | 1010.8 |
| 20260503224121 | 59 | 239 | 2.6 | 4.3 | 0.00 | 0.00 | 0.00 | 30 | 1010.6 |
| 20260503223619 | 60 | 225 | 1.7 | 1.7 | 0.00 | 0.00 | 0.00 | 30 | 1010.8 |
| 20260503223114 | 61 | 206 | 3.5 | 4.3 | 0.00 | 0.00 | 0.00 | 31 | 1011.0 |
| 20260503222612 | 60 | 64 | 0.9 | 1.7 | 0.00 | 0.00 | 0.00 | 31 | 1010.8 |
| 20260503222109 | 60 | 355 | 2.6 | 4.3 | 0.00 | 0.00 | 0.00 | 30 | 1010.5 |
| 20260503221608 | 60 | 11 | 3.5 | 4.3 | 0.00 | 0.00 | 0.00 | 30 | 1010.7 |
| 20260503221105 | 60 | 244 | 2.6 | 4.3 | 0.00 | 0.00 | 0.00 | 30 | 1010.7 |
| 20260503220601 | 61 | 276 | 2.6 | 2.6 | 0.00 | 0.00 | 0.00 | 31 | 1010.6 |
| 20260503220058 | 61 | 188 | 2.6 | 4.3 | 0.00 | 0.00 | 0.00 | 30 | 1010.6 |
| 20260503215555 | 61 | 252 | 0.9 | 1.7 | 0.00 | 0.00 | 0.00 | 30 | 1010.7 |
| 20260503215052 | 61 | 214 | 1.7 | 1.7 | 0.00 | 0.00 | 0.00 | 30 | 1010.7 |
| 20260503214550 | 61 | 203 | 1.7 | 1.7 | 0.00 | 0.00 | 0.00 | 31 | 1010.7 |
| 20260503214046 | 61 | 251 | 2.6 | 2.6 | 0.00 | 0.00 | 0.00 | 31 | 1010.7 |
| 20260503213545 | 60 | 2 | 5.2 | 7.8 | 0.00 | 0.00 | 0.00 | 30 | 1010.5 |
| 20260503213041 | 61 | 306 | 2.6 | 2.6 | 0.00 | 0.00 | 0.00 | 30 | 1010.7 |
| 20260503212539 | 61 | 32 | 0.9 | 1.7 | 0.00 | 0.00 | 0.00 | 32 | 1010.5 |
| 20260503212036 | 61 | 270 | 2.6 | 5.2 | 0.00 | 0.00 | 0.00 | 31 | 1010.5 |
| 20260503211533 | 60 | 212 | 1.7 | 2.6 | 0.00 | 0.00 | 0.00 | 32 | 1010.7 |
| 20260503211028 | 61 | 240 | 2.6 | 4.3 | 0.00 | 0.00 | 0.00 | 30 | 1010.7 |
| 20260503210526 | 60 | 54 | 2.6 | 2.6 | 0.00 | 0.00 | 0.00 | 30 | 1010.6 |
| 20260503210021 | 60 | 244 | 5.2 | 7.0 | 0.00 | 0.00 | 0.00 | 30 | 1010.6 |
| 20260503205518 | 60 | 240 | 2.6 | 4.3 | 0.00 | 0.00 | 0.00 | 33 | 1010.7 |
| 20260503205015 | 60 | 286 | 7.0 | 9.6 | 0.00 | 0.00 | 0.00 | 29 | 1010.7 |
| 20260503204512 | 60 | 167 | 3.5 | 5.2 | 0.00 | 0.00 | 0.00 | 32 | 1010.6 |
| 20260503204009 | 60 | 295 | 5.2 | 7.0 | 0.00 | 0.00 | 0.00 | 29 | 1010.4 |
| 20260503203506 | 58 | 276 | 2.6 | 6.1 | 0.00 | 0.00 | 0.00 | 31 | 1010.4 |
| 20260503203003 | 59 | 15 | 2.6 | 5.2 | 0.00 | 0.00 | 0.00 | 31 | 1010.7 |
| 20260503202501 | 60 | 259 | 3.5 | 7.8 | 0.00 | 0.00 | 0.00 | 30 | 1010.5 |
| 20260503201959 | 59 | 19 | 4.3 | 7.0 | 0.00 | 0.00 | 0.00 | 30 | 1010.7 |
| 20260503201456 | 60 | 231 | 2.6 | 4.3 | 0.00 | 0.00 | 0.00 | 31 | 1010.7 |
| 20260503200953 | 61 | 215 | 1.7 | 2.6 | 0.00 | 0.00 | 0.00 | 31 | 1010.7 |
| 20260503200449 | 60 | 272 | 4.3 | 5.2 | 0.00 | 0.00 | 0.00 | 30 | 1010.8 |
| 20260503195946 | 59 | 247 | 4.3 | 7.0 | 0.00 | 0.00 | 0.00 | 31 | 1010.7 |
| 20260503195444 | 58 | 206 | 2.6 | 4.3 | 0.00 | 0.00 | 0.00 | 32 | 1010.8 |
| 20260503194940 | 59 | 297 | 5.2 | 8.7 | 0.00 | 0.00 | 0.00 | 31 | 1011.0 |
| 20260503194437 | 59 | 55 | 4.3 | 6.1 | 0.00 | 0.00 | 0.00 | 32 | 1010.9 |
| 20260503193932 | 59 | 45 | 5.2 | 7.0 | 0.00 | 0.00 | 0.00 | 31 | 1011.1 |
| 20260503193428 | 60 | 10 | 2.6 | 2.6 | 0.00 | 0.00 | 0.00 | 33 | 1010.8 |
| 20260503192923 | 59 | 215 | 0.9 | 0.9 | 0.00 | 0.00 | 0.00 | 33 | 1010.8 |
| 20260503192420 | 59 | 258 | 1.7 | 1.7 | 0.00 | 0.00 | 0.00 | 33 | 1011.2 |
| 20260503191916 | 59 | 22 | 4.3 | 6.1 | 0.00 | 0.00 | 0.00 | 31 | 1011.1 |
| 20260503191414 | 59 | 51 | 4.3 | 6.1 | 0.00 | 0.00 | 0.00 | 31 | 1011.2 |
| 20260503190910 | 59 | 24 | 5.2 | 6.1 | 0.00 | 0.00 | 0.00 | 31 | 1011.2 |
| 20260503190408 | 60 | 291 | 2.6 | 4.3 | 0.00 | 0.00 | 0.00 | 32 | 1011.3 |
| 20260503185904 | 58 | 305 | 3.5 | 5.2 | 0.00 | 0.00 | 0.00 | 33 | 1011.1 |
| 20260503185401 | 58 | 280 | 2.6 | 4.3 | 0.00 | 0.00 | 0.00 | 33 | 1010.9 |
| 20260503184900 | 59 | 295 | 5.2 | 8.7 | 0.00 | 0.00 | 0.00 | 32 | 1011.5 |
| 20260503184356 | 58 | 269 | 6.1 | 7.8 | 0.00 | 0.00 | 0.00 | 32 | 1011.5 |
| 20260503183853 | 57 | 278 | 2.6 | 2.6 | 0.00 | 0.00 | 0.00 | 35 | 1011.3 |
| 20260503183350 | 57 | 37 | 3.5 | 5.2 | 0.00 | 0.00 | 0.00 | 33 | 1011.7 |
| 20260503182847 | 56 | 352 | 2.6 | 2.6 | 0.00 | 0.00 | 0.00 | 33 | 1011.7 |
| 20260503182346 | 57 | 223 | 4.3 | 7.0 | 0.00 | 0.00 | 0.00 | 34 | 1011.7 |
| 20260503181842 | 58 | 214 | 0.9 | 1.7 | 0.00 | 0.00 | 0.00 | 37 | 1011.8 |
| 20260503181340 | 57 | 215 | 0.0 | 0.0 | 0.00 | 0.00 | 0.00 | 39 | 1011.7 |
| 20260503180836 | 58 | 15 | 6.1 | 7.8 | 0.00 | 0.00 | 0.00 | 34 | 1011.6 |
| 20260503180334 | 57 | 246 | 6.1 | 7.8 | 0.00 | 0.00 | 0.00 | 34 | 1011.7 |
| 20260503175830 | 57 | 215 | 1.7 | 1.7 | 0.00 | 0.00 | 0.00 | 37 | 1011.7 |
| 20260503175328 | 55 | 224 | 2.6 | 2.6 | 0.00 | 0.00 | 0.00 | 39 | 1011.8 |
| 20260503174823 | 54 | 21 | 4.3 | 5.2 | 0.00 | 0.00 | 0.00 | 39 | 1012.0 |
| 20260503174322 | 54 | 231 | 7.0 | 7.8 | 0.00 | 0.00 | 0.00 | 39 | 1011.8 |
| 20260503173817 | 55 | 346 | 3.5 | 6.1 | 0.00 | 0.00 | 0.00 | 37 | 1012.0 |
| 20260503173313 | 56 | 21 | 1.7 | 1.7 | 0.00 | 0.00 | 0.00 | 43 | 1012.1 |
| 20260503172810 | 55 | 150 | 3.5 | 4.3 | 0.00 | 0.00 | 0.00 | 42 | 1012.3 |
| 20260503172308 | 54 | 279 | 4.3 | 6.1 | 0.00 | 0.00 | 0.00 | 38 | 1012.0 |
| 20260503171803 | 53 | 57 | 3.5 | 5.2 | 0.00 | 0.00 | 0.00 | 39 | 1012.1 |
| 20260503171300 | 54 | 28 | 7.0 | 7.8 | 0.00 | 0.00 | 0.00 | 37 | 1012.3 |
| 20260503170758 | 54 | 25 | 5.2 | 8.7 | 0.00 | 0.00 | 0.00 | 39 | 1012.2 |
| 20260503170254 | 53 | 263 | 4.3 | 7.0 | 0.00 | 0.00 | 0.00 | 41 | 1012.2 |
| 20260503160217 | 52 | 311 | 4.3 | 6.1 | 0.00 | 0.00 | 0.00 | 41 | 1012.5 |
| 20260503150647 | 50 | 329 | 3.5 | 4.3 | 0.00 | 0.00 | 0.00 | 44 | 1012.7 |
| 20260503150143 | 50 | 48 | 2.6 | 2.6 | 0.00 | 0.00 | 0.00 | 46 | 1012.6 |
| 20260503140107 | 50 | 231 | 6.1 | 11.3 | 0.00 | 0.00 | 0.00 | 48 | 1012.8 |
| 20260503131037 | 48 | 52 | 4.3 | 5.2 | 0.00 | 0.00 | 0.00 | 53 | 1012.7 |
| 20260503130534 | 48 | 214 | 2.6 | 4.3 | 0.00 | 0.00 | 0.00 | 54 | 1012.6 |
| 20260503110424 | 45 | 240 | 2.6 | 4.3 | 0.00 | 0.00 | 0.00 | 58 | 1012.2 |
| 20260503090310 | 47 | 225 | 1.7 | 2.6 | 0.00 | 0.00 | 0.00 | 53 | 1010.6 |
| 20260503081237 | 47 | 227 | 0.9 | 1.7 | 0.00 | 0.00 | 0.00 | 51 | 1010.5 |
| 20260503080732 | 47 | 21 | 2.6 | 4.3 | 0.00 | 0.00 | 0.00 | 51 | 1010.5 |
| 20260503080230 | 48 | 211 | 0.9 | 0.9 | 0.00 | 0.00 | 0.00 | 52 | 1010.2 |
| 20260503072707 | 48 | 54 | 0.9 | 1.7 | 0.00 | 0.00 | 0.00 | 48 | 1010.3 |
| 20260503072203 | 48 | 18 | 2.6 | 4.3 | 0.00 | 0.00 | 0.00 | 47 | 1010.5 |
| 20260503071700 | 48 | 6 | 1.7 | 2.6 | 0.00 | 0.00 | 0.00 | 50 | 1010.4 |
| 20260503071157 | 48 | 265 | 0.9 | 0.9 | 0.00 | 0.00 | 0.00 | 49 | 1010.4 |
| 20260503070654 | 48 | 147 | 0.0 | 0.9 | 0.00 | 0.00 | 0.00 | 50 | 1010.3 |
| 20260503070152 | 48 | 274 | 0.9 | 0.9 | 0.00 | 0.00 | 0.00 | 50 | 1010.4 |
| 20260503060116 | 50 | 13 | 0.9 | 1.7 | 0.00 | 0.00 | 0.00 | 47 | 1010.5 |
| 20260503055108 | 50 | 234 | 0.9 | 0.9 | 0.00 | 0.00 | 0.00 | 47 | 1010.9 |
| 20260503054603 | 50 | 14 | 1.7 | 1.7 | 0.00 | 0.00 | 0.00 | 47 | 1010.8 |
| 20260503054100 | 50 | 43 | 0.9 | 0.9 | 0.00 | 0.00 | 0.00 | 47 | 1010.9 |
| 20260503053559 | 50 | 41 | 2.6 | 2.6 | 0.00 | 0.00 | 0.00 | 46 | 1010.6 |
| 20260503053056 | 50 | 145 | 0.9 | 0.9 | 0.00 | 0.00 | 0.00 | 46 | 1010.8 |
| 20260503052553 | 50 | 25 | 2.6 | 4.3 | 0.00 | 0.00 | 0.00 | 46 | 1010.8 |
| 20260503052049 | 50 | 236 | 0.0 | 0.9 | 0.00 | 0.00 | 0.00 | 46 | 1010.8 |
| 20260503051544 | 50 | 291 | 0.9 | 0.9 | 0.00 | 0.00 | 0.00 | 45 | 1010.8 |
| 20260503051043 | 51 | 249 | 0.9 | 1.7 | 0.00 | 0.00 | 0.00 | 45 | 1010.9 |
| 20260503050538 | 50 | 4 | 4.3 | 5.2 | 0.00 | 0.00 | 0.00 | 45 | 1011.0 |
| 20260503050036 | 51 | 283 | 0.9 | 0.9 | 0.00 | 0.00 | 0.00 | 45 | 1011.1 |
| 20260503045533 | 51 | 252 | 0.9 | 1.7 | 0.00 | 0.00 | 0.00 | 46 | 1010.8 |
| 20260503045030 | 50 | 266 | 1.7 | 1.7 | 0.00 | 0.00 | 0.00 | 46 | 1011.0 |
| 20260503044526 | 50 | 275 | 0.9 | 0.9 | 0.00 | 0.00 | 0.00 | 46 | 1011.2 |
| 20260503044024 | 50 | 40 | 0.0 | 0.0 | 0.00 | 0.00 | 0.00 | 46 | 1011.1 |
| 20260503043520 | 51 | 254 | 0.9 | 0.9 | 0.00 | 0.00 | 0.00 | 45 | 1011.1 |
| 20260503043017 | 51 | 190 | 0.0 | 0.0 | 0.00 | 0.00 | 0.00 | 45 | 1011.0 |
| 20260503042514 | 51 | 228 | 0.0 | 0.0 | 0.00 | 0.00 | 0.00 | 45 | 1011.0 |
| 20260503042010 | 51 | 229 | 0.9 | 0.9 | 0.00 | 0.00 | 0.00 | 46 | 1011.2 |
| 20260503041507 | 51 | 4 | 0.9 | 0.9 | 0.00 | 0.00 | 0.00 | 44 | 1011.3 |
| 20260503041005 | 51 | 282 | 0.9 | 0.9 | 0.00 | 0.00 | 0.00 | 44 | 1011.1 |
| 20260503040502 | 51 | 40 | 0.9 | 0.9 | 0.00 | 0.00 | 0.00 | 45 | 1011.3 |
| 20260503035959 | 51 | 0 | 1.7 | 1.7 | 0.00 | 0.00 | 0.00 | 45 | 1011.0 |
| 20260503035455 | 51 | 222 | 0.0 | 0.9 | 0.00 | 0.00 | 0.00 | 45 | 1011.0 |
| 20260503034954 | 51 | 92 | 0.0 | 0.9 | 0.00 | 0.00 | 0.00 | 44 | 1011.3 |
| 20260503034450 | 51 | 12 | 1.7 | 2.6 | 0.00 | 0.00 | 0.00 | 43 | 1011.1 |
| 20260503033947 | 51 | 201 | 0.9 | 0.9 | 0.00 | 0.00 | 0.00 | 45 | 1011.0 |
| 20260503033445 | 52 | 215 | 0.0 | 0.9 | 0.00 | 0.00 | 0.00 | 44 | 1011.2 |
| 20260503032943 | 52 | 41 | 0.0 | 0.0 | 0.00 | 0.00 | 0.00 | 43 | 1010.9 |
| 20260503032441 | 52 | 231 | 0.0 | 0.0 | 0.00 | 0.00 | 0.00 | 44 | 1010.9 |
| 20260503031938 | 52 | 210 | 0.0 | 0.0 | 0.00 | 0.00 | 0.00 | 43 | 1011.1 |
| 20260503031436 | 52 | 291 | 1.7 | 1.7 | 0.00 | 0.00 | 0.00 | 41 | 1011.1 |
| 20260503030932 | 52 | 19 | 2.6 | 6.1 | 0.00 | 0.00 | 0.00 | 43 | 1010.9 |
| 20260503030429 | 52 | 229 | 1.7 | 1.7 | 0.00 | 0.00 | 0.00 | 42 | 1011.0 |
| 20260503025926 | 52 | 211 | 1.7 | 1.7 | 0.00 | 0.00 | 0.00 | 43 | 1011.1 |
| 20260503025422 | 52 | 216 | 0.0 | 0.9 | 0.00 | 0.00 | 0.00 | 42 | 1010.9 |
| 20260503024920 | 53 | 206 | 0.9 | 0.9 | 0.00 | 0.00 | 0.00 | 43 | 1011.0 |
| 20260503024417 | 53 | 300 | 1.7 | 1.7 | 0.00 | 0.00 | 0.00 | 42 | 1011.2 |
| 20260503023914 | 53 | 240 | 0.9 | 1.7 | 0.00 | 0.00 | 0.00 | 42 | 1011.2 |
| 20260503023410 | 53 | 220 | 0.0 | 0.9 | 0.00 | 0.00 | 0.00 | 42 | 1011.0 |
| 20260503022907 | 53 | 19 | 3.5 | 4.3 | 0.00 | 0.00 | 0.00 | 40 | 1011.1 |
| 20260503022402 | 54 | 0 | 0.9 | 0.9 | 0.00 | 0.00 | 0.00 | 40 | 1011.0 |
| 20260503021858 | 54 | 225 | 1.7 | 1.7 | 0.00 | 0.00 | 0.00 | 41 | 1011.1 |
| 20260503021355 | 54 | 298 | 1.7 | 1.7 | 0.00 | 0.00 | 0.00 | 40 | 1011.1 |
| 20260503020852 | 54 | 220 | 1.7 | 1.7 | 0.00 | 0.00 | 0.00 | 41 | 1010.9 |
| 20260503020350 | 54 | 14 | 1.7 | 1.7 | 0.00 | 0.00 | 0.00 | 40 | 1010.9 |
| 20260503015846 | 54 | 265 | 0.9 | 1.7 | 0.00 | 0.00 | 0.00 | 40 | 1010.9 |
| 20260503015343 | 54 | 19 | 1.7 | 1.7 | 0.00 | 0.00 | 0.00 | 39 | 1011.2 |
| 20260503014839 | 54 | 277 | 0.9 | 1.7 | 0.00 | 0.00 | 0.00 | 41 | 1011.1 |
| 20260503014337 | 54 | 93 | 1.7 | 1.7 | 0.00 | 0.00 | 0.00 | 40 | 1011.2 |
| 20260503013834 | 55 | 41 | 0.9 | 0.9 | 0.00 | 0.00 | 0.00 | 39 | 1011.1 |
| 20260503013331 | 55 | 260 | 0.9 | 0.9 | 0.00 | 0.00 | 0.00 | 40 | 1011.2 |
| 20260503012828 | 55 | 221 | 0.0 | 0.9 | 0.00 | 0.00 | 0.00 | 40 | 1011.3 |
| 20260503012326 | 55 | 222 | 1.7 | 2.6 | 0.00 | 0.00 | 0.00 | 40 | 1010.9 |
| 20260503011822 | 55 | 356 | 1.7 | 1.7 | 0.00 | 0.00 | 0.00 | 39 | 1011.1 |
| 20260503011319 | 55 | 236 | 0.0 | 0.0 | 0.00 | 0.00 | 0.00 | 40 | 1011.1 |
| 20260503010816 | 55 | 253 | 0.0 | 0.0 | 0.00 | 0.00 | 0.00 | 39 | 1010.9 |
| 20260503010313 | 55 | 240 | 0.9 | 0.9 | 0.00 | 0.00 | 0.00 | 39 | 1011.1 |
| 20260503005810 | 55 | 307 | 0.9 | 0.9 | 0.00 | 0.00 | 0.00 | 39 | 1010.6 |
| 20260503005307 | 55 | 216 | 1.7 | 2.6 | 0.00 | 0.00 | 0.00 | 39 | 1010.9 |